,,,PA_Meas_PMT16A,,PR_Meas_QMR101_102,,RH_Meas_QMH101,,SR_Meas_QMS101,,TA_Meas_QMH101,,GenWind,,GenWind,
date,time,status,PA,status,PR,status,RH,status,SR,status,TA,status,DirAvg,status,SpdAvg,
2011-12-06, 07:05:04,INVALID - VALUE NOT AVAILABLE,0,INVALID - VALUE NOT AVAILABLE,0,INVALID - VALUE NOT AVAILABLE,0,INVALID - VALUE NOT AVAILABLE,0,INVALID - VALUE NOT AVAILABLE,0,INVALID,360,INVALID,0,
2011-12-06, 07:11:04,VALID,1002.66,VALID,0,VALID,85.8096,VALID,116.15,VALID,26.118,VALID,339,VALID,0.804688,
2011-12-06, 07:12:04,VALID,1002.68,VALID,0,VALID,86.4505,VALID,119.003,VALID,26.157,VALID,317,VALID,0.193359,
2011-12-06, 07:13:04,VALID,1002.71,VALID,0,VALID,85.9165,VALID,122.1,VALID,26.1959,VALID,317,VALID,0.399609,
2011-12-06, 07:14:04,VALID,1002.73,VALID,0,VALID,85.6189,VALID,126.013,VALID,26.2349,VALID,318,VALID,0.330859,
2011-12-06, 07:15:04,VALID,1002.77,VALID,0,VALID,85.4892,VALID,129.925,VALID,26.2739,VALID,290,VALID,0.802734,
2011-12-06, 07:16:04,VALID,1002.78,VALID,0,VALID,86.2216,VALID,133.675,VALID,26.3518,VALID,289,VALID,0.0535156,
2011-12-06, 07:17:04,VALID,1002.8,VALID,0,VALID,85.9546,VALID,137.424,VALID,26.4317,VALID,289,VALID,0.103516,
2011-12-06, 07:18:04,VALID,1002.82,VALID,0,VALID,85.9622,VALID,141.01,VALID,26.4687,VALID,290,VALID,0.213672,
2011-12-06, 07:19:04,VALID,1002.85,VALID,0,VALID,84.856,VALID,144.108,VALID,26.5096,VALID,276,VALID,0.366016,
2011-12-06, 07:20:04,VALID,1002.85,VALID,0,VALID,85.1688,VALID,146.961,VALID,26.5466,VALID,288,VALID,0.176953,
2011-12-06, 07:21:04,VALID,1002.89,VALID,0,VALID,85.1154,VALID,149.161,VALID,26.6245,VALID,288,VALID,0.151953,
2011-12-06, 07:22:04,VALID,1002.92,VALID,0,VALID,84.3144,VALID,150.873,VALID,26.644,VALID,355,VALID,0.596094,
2011-12-06, 07:23:04,VALID,1002.93,VALID,0,VALID,84.6272,VALID,152.748,VALID,26.644,VALID,266,VALID,0.307422,
2011-12-06, 07:24:04,VALID,1002.98,VALID,0,VALID,84.2152,VALID,154.378,VALID,26.7045,VALID,271,VALID,0.447266,
2011-12-06, 07:25:04,VALID,1002.99,VALID,0,VALID,83.8643,VALID,155.682,VALID,26.7239,VALID,279,VALID,0.755859,
2011-12-06, 07:26:04,VALID,1002.96,VALID,0,VALID,83.5896,VALID,156.823,VALID,26.7024,VALID,307,VALID,0.453906,
2011-12-06, 07:27:04,VALID,1003,VALID,0,VALID,84.8179,VALID,157.638,VALID,26.7414,VALID,329,VALID,0.228906,
2011-12-06, 07:28:04,VALID,1003.01,VALID,0,VALID,84.3525,VALID,158.29,VALID,26.7609,VALID,340,VALID,0.326953,
2011-12-06, 07:29:04,VALID,1003.03,VALID,0,VALID,83.1777,VALID,159.757,VALID,26.7804,VALID,288,VALID,1.27539,
2011-12-06, 07:30:04,VALID,1003,VALID,0,VALID,83.8719,VALID,160.98,VALID,26.7629,VALID,283,VALID,0.706641,
2011-12-06, 07:31:04,VALID,1003,VALID,0,VALID,84.3754,VALID,160.817,VALID,26.7589,VALID,286,VALID,0.265625,
2011-12-06, 07:32:04,VALID,1002.98,VALID,0,VALID,84.4975,VALID,159.594,VALID,26.7804,VALID,356,VALID,0.189453,
2011-12-06, 07:33:04,VALID,1003,VALID,0,VALID,84.2076,VALID,158.29,VALID,26.7804,VALID,341,VALID,0.419922,
2011-12-06, 07:34:04,VALID,1003.05,VALID,0,VALID,83.8872,VALID,157.475,VALID,26.7998,VALID,336,VALID,0.449219,
2011-12-06, 07:35:04,VALID,1003.05,VALID,0,VALID,82.8039,VALID,157.231,VALID,26.7998,VALID,356,VALID,1.57617,
2011-12-06, 07:36:04,VALID,1003.07,VALID,0,VALID,84.1313,VALID,158.29,VALID,26.7998,VALID,305,VALID,0.590234,
2011-12-06, 07:37:04,VALID,1003.06,VALID,0,VALID,84.4136,VALID,160.084,VALID,26.8388,VALID,344,VALID,0.905078,
2011-12-06, 07:38:04,VALID,1003.11,VALID,0,VALID,83.4142,VALID,162.366,VALID,26.8173,VALID,338,VALID,0.719922,
2011-12-06, 07:39:04,VALID,1003.12,VALID,0,VALID,83.3608,VALID,164.811,VALID,26.8388,VALID,324,VALID,0.660156,
2011-12-06, 07:40:04,VALID,1003.09,VALID,0,VALID,83.0327,VALID,165.3,VALID,26.8583,VALID,346,VALID,0.544922,
2011-12-06, 07:41:04,VALID,1003.16,VALID,0,VALID,83.3455,VALID,163.67,VALID,26.8778,VALID,346,VALID,0.577344,
2011-12-06, 07:42:04,VALID,1003.16,VALID,0,VALID,83.8185,VALID,163.833,VALID,26.9167,VALID,343,VALID,0,
2011-12-06, 07:43:04,VALID,1003.17,VALID,0,VALID,83.7956,VALID,164.811,VALID,26.9557,VALID,306,VALID,0.462891,
2011-12-06, 07:44:04,VALID,1003.19,VALID,0,VALID,82.5826,VALID,160.817,VALID,27.0336,VALID,352,VALID,0.726172,
2011-12-06, 07:45:04,VALID,1003.23,VALID,0,VALID,81.6748,VALID,161.958,VALID,27.0726,VALID,347,VALID,0.528516,
2011-12-06, 07:46:05,VALID,1003.24,VALID,0,VALID,82.2546,VALID,163.099,VALID,27.0921,VALID,357,VALID,0.679297,
2011-12-06, 07:47:05,VALID,1003.26,VALID,0,VALID,80.7593,VALID,156.823,VALID,27.1311,VALID,304,VALID,0.926562,
2011-12-06, 07:48:05,VALID,1003.31,VALID,0,VALID,81.2247,VALID,149.487,VALID,27.1506,VALID,254,VALID,0.354297,
2011-12-06, 07:49:05,VALID,1003.32,VALID,0,VALID,81.5832,VALID,144.108,VALID,27.1895,VALID,292,VALID,0.400781,
2011-12-06, 07:50:05,VALID,1003.35,VALID,0,VALID,80.4008,VALID,131.637,VALID,27.1895,VALID,340,VALID,0.838281,
2011-12-06, 07:51:05,VALID,1003.34,VALID,0,VALID,80.5686,VALID,119.411,VALID,27.1895,VALID,344,VALID,0.507813,
2011-12-06, 08:09:04,VALID,1003.55,VALID,0,VALID,83.109,VALID,121.693,VALID,26.7783,VALID,302,VALID,1.22539,
2011-12-06, 08:10:04,VALID,1003.57,VALID,0,VALID,81.9723,VALID,117.78,VALID,26.7414,VALID,318,VALID,1.4125,
2011-12-06, 08:32:04,VALID,1003.82,VALID,0,VALID,85.4663,VALID,125.524,VALID,26.2933,VALID,348,VALID,0.960547,
2011-12-06, 08:33:04,VALID,1003.83,VALID,0,VALID,84.4364,VALID,127.561,VALID,26.2739,VALID,356,VALID,1.55859,
2011-12-06, 08:34:04,VALID,1003.83,VALID,0,VALID,84.9476,VALID,129.355,VALID,26.2349,VALID,352,VALID,1.46328,
2011-12-06, 08:35:04,VALID,1003.85,VALID,0,VALID,84.5433,VALID,128.621,VALID,26.2349,VALID,351,VALID,1.47109,
2011-12-06, 09:00:04,INVALID - VALUE NOT AVAILABLE,0,INVALID - VALUE NOT AVAILABLE,0,INVALID - VALUE NOT AVAILABLE,0,INVALID - VALUE NOT AVAILABLE,0,INVALID - VALUE NOT AVAILABLE,0,INVALID,360,INVALID,0,
2011-12-06, 09:38:04,VALID,1003.86,VALID,0,VALID,89.1435,VALID,140.847,VALID,26.2719,VALID,355,VALID,0.607422,
2011-12-06, 09:39:04,VALID,1003.84,VALID,0,VALID,89.5097,VALID,156.66,VALID,26.3323,VALID,349,VALID,0.40625,
2011-12-06, 09:40:04,VALID,1003.85,VALID,0.5,VALID,88.5179,VALID,170.68,VALID,26.3303,VALID,351,VALID,0.920703,
2011-12-06, 09:41:04,VALID,1003.82,VALID,0,VALID,89.0519,VALID,180.461,VALID,26.3498,VALID,343,VALID,0.355859,
2011-12-06, 09:42:04,VALID,1003.86,VALID,0,VALID,88.7315,VALID,186.411,VALID,26.3887,VALID,343,VALID,0.476953,
2011-12-06, 09:43:04,VALID,1003.86,VALID,0,VALID,88.5408,VALID,191.057,VALID,26.4297,VALID,339,VALID,0.777734,
2011-12-06, 09:44:04,VALID,1003.87,VALID,0,VALID,89.1892,VALID,193.176,VALID,26.4492,VALID,340,VALID,0.209375,
2011-12-06, 09:45:04,VALID,1003.83,VALID,0,VALID,89.5097,VALID,193.176,VALID,26.5076,VALID,340,VALID,0.0550781,
2011-12-06, 09:46:04,VALID,1003.83,VALID,0,VALID,89.9445,VALID,172.962,VALID,26.605,VALID,340,VALID,0,
2011-12-06, 09:47:04,VALID,1003.85,VALID,0,VALID,89.1892,VALID,143.863,VALID,26.642,VALID,321,VALID,0.201953,
2011-12-06, 09:48:04,VALID,1003.85,VALID,0,VALID,89.3647,VALID,131.311,VALID,26.7219,VALID,346,VALID,0.315625,
2011-12-06, 09:50:04,VALID,1003.84,VALID,0,VALID,89.2655,VALID,141.173,VALID,26.7804,VALID,346,VALID,0.0964844,
2011-12-06, 09:51:04,VALID,1003.82,VALID,0,VALID,89.4944,VALID,161.551,VALID,26.8388,VALID,282,VALID,0.135156,
2011-12-06, 09:52:04,VALID,1003.83,VALID,0,VALID,89.4944,VALID,185.84,VALID,26.8563,VALID,282,VALID,0.111719,
2011-12-06, 09:53:04,VALID,1003.79,VALID,0,VALID,88.8841,VALID,209.396,VALID,26.9167,VALID,334,VALID,0.401953,
2011-12-06, 09:54:04,VALID,1003.8,VALID,0,VALID,88.4111,VALID,233.849,VALID,26.9167,VALID,349,VALID,0.310937,
2011-12-06, 09:55:04,VALID,1003.78,VALID,0,VALID,87.8008,VALID,258.302,VALID,26.8778,VALID,348,VALID,1.03281,
2011-12-06, 09:56:04,VALID,1003.71,VALID,0,VALID,88.167,VALID,278.027,VALID,26.8193,VALID,348,VALID,1.14727,
2011-12-06, 09:57:04,VALID,1003.68,VALID,0,VALID,88.6934,VALID,295.877,VALID,26.7998,VALID,10,VALID,1.03164,
2011-12-06, 09:58:04,VALID,1003.67,VALID,0,VALID,89.296,VALID,289.601,VALID,26.7804,VALID,25,VALID,0.826563,
2011-12-06, 09:59:04,VALID,1003.66,VALID,0,VALID,89.8072,VALID,300.197,VALID,26.7978,VALID,359,VALID,1.04805,
2011-12-06, 10:00:04,VALID,1003.64,VALID,0,VALID,87.8466,VALID,319.107,VALID,26.8408,VALID,27,VALID,0.862109,
2011-12-06, 10:01:04,VALID,1003.61,VALID,0,VALID,88.7925,VALID,300.279,VALID,26.8193,VALID,25,VALID,0.540625,
2011-12-06, 10:02:04,VALID,1003.62,VALID,0,VALID,89.5097,VALID,274.277,VALID,26.9578,VALID,55,VALID,0.136719,
2011-12-06, 10:03:04,VALID,1003.56,VALID,0,VALID,89.1664,VALID,227.98,VALID,27.0121,VALID,55,VALID,0.204297,
2011-12-06, 10:04:04,VALID,1003.58,VALID,0,VALID,87.1523,VALID,189.671,VALID,27.0531,VALID,15,VALID,0.50625,
2011-12-06, 10:05:04,VALID,1003.54,VALID,0,VALID,87.3278,VALID,176.711,VALID,27.0726,VALID,11,VALID,0.7875,
2011-12-06, 10:06:04,VALID,1003.52,VALID,0,VALID,87.3049,VALID,170.843,VALID,27.1116,VALID,11,VALID,0.230469,
2011-12-06, 10:07:04,VALID,1003.54,VALID,0,VALID,87.961,VALID,156.253,VALID,27.1506,VALID,11,VALID,0,
2011-12-06, 10:08:04,VALID,1003.49,VALID,0,VALID,88.3958,VALID,127.806,VALID,27.2264,VALID,11,VALID,0.234375,
2011-12-06, 12:10:04,VALID,1002.97,VALID,0,VALID,93.2402,VALID,119.574,VALID,25.337,VALID,339,VALID,0.663281,
2011-12-06, 12:11:04,VALID,1002.93,VALID,0,VALID,93.0189,VALID,120.307,VALID,25.3584,VALID,350,VALID,1.30117,
2011-12-06, 14:01:04,INVALID - VALUE NOT AVAILABLE,0,INVALID - VALUE NOT AVAILABLE,0,INVALID - VALUE NOT AVAILABLE,0,INVALID - VALUE NOT AVAILABLE,0,INVALID - VALUE NOT AVAILABLE,0,INVALID,360,INVALID,0,
2011-12-06, 14:10:04,VALID,1001.75,VALID,0,VALID,92.9274,VALID,116.476,VALID,24.1902,VALID,344,VALID,1.4168,
2011-12-06, 14:11:04,VALID,1001.73,VALID,0,VALID,93.0495,VALID,118.595,VALID,24.1689,VALID,348,VALID,1.80664,
2011-12-06, 14:12:04,VALID,1001.74,VALID,0,VALID,92.9884,VALID,120.552,VALID,24.1689,VALID,358,VALID,1.09687,
2011-12-06, 14:13:04,VALID,1001.75,VALID,0,VALID,92.5993,VALID,121.774,VALID,24.1689,VALID,346,VALID,1.98398,
2011-12-06, 14:14:04,VALID,1001.73,VALID,0,VALID,92.7062,VALID,122.834,VALID,24.2097,VALID,341,VALID,0.653125,
2011-12-06, 14:15:04,VALID,1001.76,VALID,0,VALID,92.8435,VALID,123.894,VALID,24.1902,VALID,350,VALID,1.0918,
2011-12-06, 14:16:04,VALID,1001.73,VALID,0,VALID,93.0189,VALID,125.85,VALID,24.2273,VALID,3,VALID,1.21602,
2011-12-06, 14:17:04,VALID,1001.73,VALID,0,VALID,93.2478,VALID,127.154,VALID,24.2486,VALID,360,VALID,0.842578,
2011-12-06, 14:18:04,VALID,1001.74,VALID,0,VALID,93.3622,VALID,128.132,VALID,24.2875,VALID,352,VALID,1.03281,
2011-12-06, 14:19:04,VALID,1001.7,VALID,0.5,VALID,93.2936,VALID,129.762,VALID,24.307,VALID,346,VALID,1.28984,
2011-12-06, 14:20:04,VALID,1001.7,VALID,0,VALID,92.9884,VALID,130.577,VALID,24.307,VALID,335,VALID,1.26406,
2011-12-06, 14:21:04,VALID,1001.68,VALID,0,VALID,93.1029,VALID,131.881,VALID,24.2857,VALID,351,VALID,1.35039,
2011-12-06, 14:22:04,VALID,1001.7,VALID,0,VALID,93.3088,VALID,133.675,VALID,24.2875,VALID,264,VALID,0.742969,
2011-12-06, 14:23:04,VALID,1001.65,VALID,0,VALID,93.3775,VALID,136.12,VALID,24.2875,VALID,354,VALID,1.23438,
2011-12-06, 14:24:04,VALID,1001.59,VALID,0,VALID,92.935,VALID,136.201,VALID,24.2875,VALID,352,VALID,1.54922,
2011-12-06, 14:25:04,VALID,1001.59,VALID,0,VALID,93.1563,VALID,137.995,VALID,24.2662,VALID,346,VALID,1.44727,
2011-12-06, 14:26:04,VALID,1001.58,VALID,0.5,VALID,92.7519,VALID,137.343,VALID,24.2681,VALID,351,VALID,1.69102,
2011-12-06, 14:27:04,VALID,1001.54,VALID,0,VALID,93.1639,VALID,135.875,VALID,24.307,VALID,359,VALID,1.73164,
2011-12-06, 14:28:04,VALID,1001.53,VALID,0,VALID,93.1105,VALID,131.229,VALID,24.2875,VALID,353,VALID,2.15508,
2011-12-06, 14:29:04,VALID,1001.55,VALID,0,VALID,93.4538,VALID,121.53,VALID,24.307,VALID,326,VALID,1.19883,
2011-12-06, 14:52:04,VALID,1001.27,VALID,0,VALID,93.2936,VALID,122.915,VALID,24.4414,VALID,306,VALID,1.48555,
2011-12-06, 14:53:04,VALID,1001.26,VALID,0,VALID,93.1791,VALID,128.214,VALID,24.4609,VALID,358,VALID,1.15078,
2011-12-06, 14:54:04,VALID,1001.27,VALID,0,VALID,93.0113,VALID,131.555,VALID,24.4609,VALID,349,VALID,1.45078,
2011-12-06, 14:55:04,VALID,1001.26,VALID,0,VALID,93.2325,VALID,131.963,VALID,24.4804,VALID,12,VALID,0.795313,
2011-12-06, 14:56:04,VALID,1001.3,VALID,0,VALID,93.1715,VALID,128.214,VALID,24.4998,VALID,343,VALID,0.932813,
2011-12-06, 15:02:04,VALID,1001.31,VALID,0,VALID,93.1563,VALID,134.979,VALID,24.5777,VALID,250,VALID,0.508594,
2011-12-06, 15:03:04,VALID,1001.31,VALID,0,VALID,93.1944,VALID,139.054,VALID,24.6166,VALID,7,VALID,0.287109,
2011-12-06, 15:04:04,VALID,1001.3,VALID,0,VALID,92.9274,VALID,135.549,VALID,24.6361,VALID,302,VALID,0.992969,
2011-12-06, 15:05:04,VALID,1001.36,VALID,0,VALID,92.7367,VALID,129.192,VALID,24.6574,VALID,315,VALID,1.4418,
2011-12-06, 15:06:04,VALID,1001.33,VALID,0,VALID,92.5765,VALID,127.317,VALID,24.6769,VALID,304,VALID,1.36641,
2011-12-06, 15:07:04,VALID,1001.31,VALID,0,VALID,92.2866,VALID,132.533,VALID,24.6166,VALID,313,VALID,1.00391,
2011-12-06, 15:08:04,VALID,1001.32,VALID,0,VALID,92.2942,VALID,137.913,VALID,24.6361,VALID,1,VALID,0.88125,
2011-12-06, 15:09:04,VALID,1001.33,VALID,0,VALID,92.34,VALID,137.261,VALID,24.6556,VALID,38,VALID,0.574609,
2011-12-06, 15:10:04,VALID,1001.32,VALID,0,VALID,91.6,VALID,134.816,VALID,24.6361,VALID,319,VALID,0.861719,
2011-12-06, 15:11:04,VALID,1001.31,VALID,0,VALID,91.5847,VALID,134.245,VALID,24.5953,VALID,307,VALID,0.900781,
2011-12-06, 15:12:04,VALID,1001.3,VALID,0,VALID,91.9967,VALID,135.06,VALID,24.6574,VALID,296,VALID,0.810156,
2011-12-06, 15:13:04,VALID,1001.28,VALID,0,VALID,92.1416,VALID,138.973,VALID,24.675,VALID,312,VALID,0.595312,
2011-12-06, 15:14:04,VALID,1001.26,VALID,0,VALID,91.3558,VALID,140.603,VALID,24.6556,VALID,322,VALID,1.2957,
2011-12-06, 15:15:04,VALID,1001.27,VALID,0,VALID,91.5084,VALID,138.973,VALID,24.6361,VALID,354,VALID,2.03594,
2011-12-06, 15:16:04,VALID,1001.27,VALID,0,VALID,91.4932,VALID,132.86,VALID,24.6556,VALID,309,VALID,1.76172,
2011-12-06, 15:17:04,VALID,1001.26,VALID,0,VALID,91.5771,VALID,121.937,VALID,24.675,VALID,356,VALID,0.834375,
2011-12-06, 15:18:04,VALID,1001.27,VALID,0,VALID,91.7449,VALID,123.241,VALID,24.6556,VALID,331,VALID,0.542969,
2011-12-06, 15:22:04,VALID,1001.23,VALID,0,VALID,91.1956,VALID,134.245,VALID,24.7335,VALID,352,VALID,1.7707,
2011-12-06, 15:23:04,VALID,1001.22,VALID,0,VALID,91.8059,VALID,155.927,VALID,24.714,VALID,47,VALID,0.336719,
2011-12-06, 15:24:04,VALID,1001.19,VALID,0,VALID,92.1874,VALID,177.608,VALID,24.7529,VALID,341,VALID,0.205859,
2011-12-06, 15:25:04,VALID,1001.21,VALID,0,VALID,91.6,VALID,191.546,VALID,24.7743,VALID,326,VALID,0.613281,
2011-12-06, 15:26:04,VALID,1001.2,VALID,0,VALID,91.7373,VALID,200.186,VALID,24.7724,VALID,355,VALID,0.802344,
2011-12-06, 15:27:04,VALID,1001.19,VALID,0,VALID,92.4086,VALID,204.913,VALID,24.8522,VALID,359,VALID,0.00703125,
2011-12-06, 15:28:04,VALID,1001.19,VALID,0,VALID,91.661,VALID,207.522,VALID,24.8911,VALID,298,VALID,1.28398,
2011-12-06, 15:29:04,VALID,1001.16,VALID,0,VALID,91.3101,VALID,208.418,VALID,24.8503,VALID,349,VALID,1.02813,
2011-12-06, 15:30:04,VALID,1001.15,VALID,0,VALID,90.7074,VALID,209.152,VALID,24.8697,VALID,330,VALID,1.75937,
2011-12-06, 15:31:04,VALID,1001.11,VALID,0,VALID,90.6692,VALID,210.456,VALID,24.8697,VALID,351,VALID,1.21875,
2011-12-06, 15:32:04,VALID,1001.14,VALID,0,VALID,90.8066,VALID,211.027,VALID,24.8697,VALID,349,VALID,1.59102,
2011-12-06, 15:33:04,VALID,1001.13,VALID,0,VALID,91.127,VALID,211.597,VALID,24.9106,VALID,338,VALID,1.04531,
2011-12-06, 15:34:04,VALID,1001.14,VALID,0,VALID,91.7144,VALID,212.901,VALID,24.8892,VALID,352,VALID,0.420312,
2011-12-06, 15:35:04,VALID,1001.13,VALID,0,VALID,91.5237,VALID,214.531,VALID,24.9671,VALID,288,VALID,1.3793,
2011-12-06, 15:36:04,VALID,1001.13,VALID,0,VALID,92.1874,VALID,237.435,VALID,25.0469,VALID,325,VALID,0.416797,
2011-12-06, 15:37:04,VALID,1001.11,VALID,0,VALID,92.2103,VALID,248.113,VALID,25.1053,VALID,353,VALID,0.419531,
2011-12-06, 15:38:04,VALID,1001.12,VALID,0,VALID,93.0266,VALID,274.441,VALID,25.2416,VALID,352,VALID,0.0761719,
2011-12-06, 15:39:04,VALID,1001.08,VALID,0,VALID,91.394,VALID,230.181,VALID,25.2202,VALID,3,VALID,1.26289,
2011-12-06, 15:40:04,VALID,1001.08,VALID,0,VALID,90.86,VALID,228.551,VALID,25.2027,VALID,279,VALID,0.872656,
2011-12-06, 15:41:04,VALID,1001.05,VALID,0,VALID,90.9668,VALID,229.203,VALID,25.2416,VALID,355,VALID,0.575781,
2011-12-06, 15:42:04,VALID,1001.09,VALID,0,VALID,91.2185,VALID,232.463,VALID,25.2806,VALID,317,VALID,0.262109,
2011-12-06, 15:43:04,VALID,1001.07,VALID,0,VALID,90.4938,VALID,234.012,VALID,25.2786,VALID,333,VALID,0.539063,
2011-12-06, 15:44:04,VALID,1001.05,VALID,0,VALID,90.3336,VALID,271.995,VALID,25.3,VALID,2,VALID,0.626953,
2011-12-06, 15:45:04,VALID,1001.03,VALID,0,VALID,90.5548,VALID,259.687,VALID,25.3584,VALID,312,VALID,0.730859,
2011-12-06, 15:46:04,VALID,1001.02,VALID,0,VALID,90.1429,VALID,264.415,VALID,25.3779,VALID,279,VALID,0.85,
2011-12-06, 15:47:04,VALID,1001,VALID,0,VALID,89.9216,VALID,267.92,VALID,25.4149,VALID,309,VALID,1.25391,
2011-12-06, 15:48:04,VALID,1001.03,VALID,0,VALID,90.4862,VALID,282.347,VALID,25.4948,VALID,270,VALID,0.460156,
2011-12-06, 15:49:04,VALID,1001.03,VALID,0,VALID,89.3494,VALID,279.82,VALID,25.4363,VALID,352,VALID,1.4418,
2011-12-06, 15:50:05,VALID,1001.01,VALID,0,VALID,87.8618,VALID,277.864,VALID,25.3974,VALID,348,VALID,2.08203,
2011-12-06, 15:51:05,VALID,1001.02,VALID,0,VALID,88.8383,VALID,272.566,VALID,25.339,VALID,352,VALID,1.80234,
2011-12-06, 15:52:05,VALID,1001.01,VALID,0,VALID,89.3723,VALID,227.328,VALID,25.3176,VALID,349,VALID,1.30156,
2011-12-06, 15:53:05,VALID,1000.97,VALID,0,VALID,89.38,VALID,197.985,VALID,25.2981,VALID,25,VALID,0.908594,
2011-12-06, 15:54:05,VALID,1000.97,VALID,0,VALID,89.2655,VALID,179.809,VALID,25.2786,VALID,354,VALID,2.20781,
2011-12-06, 15:55:05,VALID,1000.98,VALID,0,VALID,89.5859,VALID,168.316,VALID,25.2378,VALID,311,VALID,0.921094,
2011-12-06, 15:56:05,VALID,1000.98,VALID,0,VALID,88.9375,VALID,161.388,VALID,25.2592,VALID,332,VALID,1.16328,
2011-12-06, 15:57:05,VALID,1000.96,VALID,0,VALID,89.8911,VALID,156.253,VALID,25.2592,VALID,356,VALID,1.33672,
2011-12-06, 15:58:05,VALID,1000.95,VALID,0,VALID,88.8993,VALID,152.177,VALID,25.2592,VALID,354,VALID,1.61484,
2011-12-06, 15:59:05,VALID,1000.95,VALID,0,VALID,89.2198,VALID,149.895,VALID,25.2416,VALID,353,VALID,2.22461,
2011-12-06, 16:00:05,VALID,1000.94,VALID,0,VALID,88.0296,VALID,148.754,VALID,25.2202,VALID,350,VALID,2.19766,
2011-12-06, 16:01:05,VALID,1000.95,VALID,0,VALID,88.9146,VALID,148.672,VALID,25.2007,VALID,343,VALID,1.58203,
2011-12-06, 16:02:05,VALID,1000.97,VALID,0,VALID,89.0672,VALID,149.324,VALID,25.2007,VALID,8,VALID,1.07344,
2011-12-06, 16:03:05,VALID,1000.99,VALID,0,VALID,89.1358,VALID,150.384,VALID,25.2007,VALID,354,VALID,1.3457,
2011-12-06, 16:04:05,VALID,1000.97,VALID,0,VALID,88.7391,VALID,152.014,VALID,25.2007,VALID,328,VALID,1.26406,
2011-12-06, 16:05:05,VALID,1001.01,VALID,0,VALID,89.3952,VALID,153.807,VALID,25.2007,VALID,360,VALID,0.671875,
2011-12-06, 16:06:05,VALID,1001.01,VALID,0,VALID,89.1969,VALID,155.764,VALID,25.2397,VALID,346,VALID,0.960156,
2011-12-06, 16:07:05,VALID,1001.03,VALID,0,VALID,89.8453,VALID,157.394,VALID,25.2611,VALID,336,VALID,0.559375,
2011-12-06, 16:08:05,VALID,1001.05,VALID,0,VALID,89.9521,VALID,158.942,VALID,25.2786,VALID,243,VALID,0.402734,
2011-12-06, 16:09:05,VALID,1001.04,VALID,0,VALID,89.7614,VALID,159.839,VALID,25.339,VALID,348,VALID,0.86875,
2011-12-06, 16:10:05,VALID,1001.04,VALID,0,VALID,89.6851,VALID,160.573,VALID,25.3779,VALID,345,VALID,0.544922,
2011-12-06, 16:11:05,VALID,1001.05,VALID,0,VALID,88.9222,VALID,161.062,VALID,25.376,VALID,354,VALID,1.29727,
2011-12-06, 16:12:05,VALID,1001.05,VALID,0,VALID,89.1587,VALID,161.795,VALID,25.3955,VALID,331,VALID,0.761328,
2011-12-06, 16:13:05,VALID,1001.09,VALID,0,VALID,88.8307,VALID,161.632,VALID,25.3974,VALID,264,VALID,0.553906,
2011-12-06, 16:14:05,VALID,1001.09,VALID,0,VALID,88.7544,VALID,161.225,VALID,25.3974,VALID,304,VALID,1.08359,
2011-12-06, 16:15:05,VALID,1001.1,VALID,0,VALID,89.4563,VALID,160.247,VALID,25.4363,VALID,2,VALID,0.54375,
2011-12-06, 16:16:05,VALID,1001.11,VALID,0,VALID,89.0977,VALID,159.024,VALID,25.4577,VALID,354,VALID,0.828906,
2011-12-06, 16:17:05,VALID,1001.1,VALID,0,VALID,88.7162,VALID,157.068,VALID,25.3955,VALID,298,VALID,0.646875,
2011-12-06, 16:18:05,VALID,1001.11,VALID,0,VALID,89.3647,VALID,155.274,VALID,25.4363,VALID,2,VALID,1.06641,
2011-12-06, 16:19:05,VALID,1001.15,VALID,0,VALID,90.3946,VALID,152.911,VALID,25.4753,VALID,340,VALID,0.783203,
2011-12-06, 16:20:05,VALID,1001.12,VALID,0,VALID,89.113,VALID,150.058,VALID,25.4344,VALID,307,VALID,0.399219,
2011-12-06, 16:21:05,VALID,1001.12,VALID,0,VALID,88.9451,VALID,147.205,VALID,25.4753,VALID,354,VALID,1.08477,
2011-12-06, 16:22:05,VALID,1001.14,VALID,0,VALID,88.8841,VALID,144.108,VALID,25.4577,VALID,353,VALID,1.48555,
2011-12-06, 16:23:05,VALID,1001.11,VALID,0,VALID,89.235,VALID,141.255,VALID,25.4577,VALID,351,VALID,0.651953,
2011-12-06, 16:24:05,VALID,1001.11,VALID,0,VALID,89.5859,VALID,138.484,VALID,25.4363,VALID,3,VALID,1.20234,
2011-12-06, 16:25:05,VALID,1001.11,VALID,0,VALID,88.8765,VALID,136.038,VALID,25.4383,VALID,346,VALID,1.42109,
2011-12-06, 16:26:05,VALID,1001.13,VALID,0,VALID,88.8078,VALID,133.756,VALID,25.3993,VALID,336,VALID,1.45586,
2011-12-06, 16:27:05,VALID,1001.15,VALID,0,VALID,88.7391,VALID,131.718,VALID,25.3798,VALID,341,VALID,1.35469,
2011-12-06, 16:28:05,VALID,1001.15,VALID,0,VALID,88.7391,VALID,129.762,VALID,25.3604,VALID,348,VALID,1.81641,
2011-12-06, 16:29:05,VALID,1001.14,VALID,0,VALID,88.7315,VALID,128.54,VALID,25.339,VALID,352,VALID,1.85156,
2011-12-06, 16:30:05,VALID,1001.13,VALID,0,VALID,88.5026,VALID,127.561,VALID,25.3604,VALID,355,VALID,2.43633,
2011-12-06, 16:31:05,VALID,1001.15,VALID,0,VALID,89.4334,VALID,126.746,VALID,25.3604,VALID,356,VALID,1.04453,
2011-12-06, 16:32:05,VALID,1001.16,VALID,0,VALID,89.6012,VALID,126.42,VALID,25.3993,VALID,352,VALID,1.08633,
2011-12-06, 16:36:04,VALID,1001.18,VALID,0,VALID,89.235,VALID,124.301,VALID,25.4363,VALID,353,VALID,1.3,
